Location: Bergnerzell
(49.1816°N, 10.2565°E)
Time: 05:28:21
(UTC+00:00)

Cosmos 1825 - Pass Details

Date: 12 August 2024
Orbit: 422 x 426 km, 82.5° (Epoch: 09 September)

Event Time Altitude Azimuth Distance (km) Brightness Sun altitude
Rises 02:00:05 0° 359° (N) 2,414 6.4 -17.3°
Reaches altitude 10° 02:02:20 10° 11° (N) 1,537 5.5 -17.0°
Maximum altitude 02:05:17 28° 73° (ENE) 831 3.8 -16.7°
Drops below altitude 10° 02:08:11 10° 135° (SE) 1,516 4.5 -16.4°
Enters shadow 02:10:10 - 147° (SSE) 2,285 5.3 -16.2°
